Flag for Slovakia Weather past 2 weeks in Bratislava, Slovakia

Now
55 °F

Passing clouds.


Feels Like: 55 °F
Forecast: 56 / 75 °F
Wind: 5 mph from Northeast

Location: Bratislava Ivanka

Current Time: Sep 19, 2014 at 4:52:56 AM

Latest Report: Sep 19, 2014 at 4:30 AM


Visibility: N/A

Pressure: 30.07 "Hg

Humidity: 88%

Dew point: 52 °F

Location of BratislavaLocation

Historic Weather in Bratislava — Graph

°F

Bratislava temperature yesterday

Maximum temperature yesterday: 72 °F (at 2:30 PM)
Minimum temperature yesterday: 50 °F (at 6:00 AM)
Average temperature yesterday: 61 °F

Past Weeks' High & Low Weather Summary

 TemperatureHumidityPressure
High81 °F (Sep 4, 4:30 PM)100% (Sep 15, 4:00 AM)30.12 "Hg (Sep 15, 4:00 AM)
Low50 °F (Sep 18, 6:00 AM)42% (Sep 5, 5:00 PM)29.77 "Hg (Sep 12, 4:30 AM)
Average64 °F79%30.01 "Hg
* Reported Sep 4 3:00 AM — Sep 19 3:30 AM, Bratislava, Weather by CustomWeather, © 2014

Note: Actual official high and low records may vary slightly from our data, if they occured in-between our weather recording intervals... More about our weather records

Advertising

Bratislava weather history for previous 24 hours

 ConditionsComfort  
Time TempWeatherWind HumidityBarometerVisibility
3:30 AM
Sep 19
55 °FClear.1 mph82%30.07 "Hg10 mi
3:00 AM55 °FClear.7 mph88%30.07 "Hg10 mi
2:30 AM55 °FClear.7 mph88%30.07 "Hg10 mi
2:00 AM55 °FClear.7 mph88%30.07 "Hg10 mi
1:30 AM57 °FClear.8 mph82%30.07 "Hg10 mi
1:00 AM57 °FClear.9 mph82%30.07 "Hg10 mi
12:30 AM57 °FClear.6 mph82%30.09 "Hg10 mi
12:00 AM57 °FClear.5 mph82%30.09 "Hg10 mi
11:30 PM
Sep 18
59 °FClear.5 mph82%30.09 "Hg10 mi
11:00 PM57 °FClear.6 mph82%30.09 "Hg10 mi
10:30 PM57 °FClear.3 mph82%30.09 "Hg10 mi
10:00 PM57 °FClear.3 mph82%30.09 "Hg10 mi
9:30 PM59 °FClear.6 mph82%30.09 "Hg10 mi
9:00 PM59 °FClear.6 mph77%30.09 "Hg10 mi
8:30 PM59 °FClear.7 mph82%30.09 "Hg10 mi
8:00 PM61 °FClear.7 mph77%30.09 "Hg10 mi
7:30 PM63 °FSunny.6 mph73%30.07 "Hg10 mi
7:00 PM64 °FSunny.7 mph68%30.07 "Hg10 mi
6:30 PM66 °FSunny.8 mph64%30.07 "Hg10 mi
6:00 PM68 °FPassing clouds.10 mph56%30.07 "HgN/A
5:30 PM70 °FPassing clouds.12 mph53%30.07 "HgN/A
5:00 PM70 °FPassing clouds.12 mph57%30.07 "HgN/A
4:30 PM70 °FPassing clouds.10 mph53%30.07 "HgN/A
4:00 PM72 °FScattered clouds.13 mph50%30.07 "HgN/A
3:30 PM72 °FScattered clouds.15 mph53%30.07 "HgN/A
3:00 PM72 °FPartly sunny.12 mph53%30.07 "HgN/A
2:30 PM72 °FPartly sunny.14 mph57%30.09 "HgN/A
2:00 PM70 °FPartly sunny.14 mph53%30.09 "HgN/A
1:30 PM70 °FPartly sunny.13 mph57%30.09 "HgN/A
1:00 PM70 °FPartly sunny.14 mph57%30.09 "HgN/A
12:30 PM70 °FPartly sunny.12 mph57%30.09 "HgN/A
12:00 PM66 °FScattered clouds.10 mph64%30.09 "HgN/A
11:30 AM68 °FPassing clouds.14 mph60%30.12 "HgN/A
11:00 AM66 °FPassing clouds.9 mph64%30.12 "HgN/A
10:30 AM66 °FPassing clouds.9 mph64%30.12 "HgN/A
10:00 AM64 °FPassing clouds.7 mph68%30.12 "HgN/A
9:30 AM61 °FPassing clouds.6 mph83%30.12 "HgN/A
9:00 AM59 °FPassing clouds.3 mph82%30.12 "HgN/A
8:30 AM57 °FPassing clouds.2 mph88%30.09 "Hg5 mi
8:00 AM55 °FFog.2 mph88%30.09 "Hg5 mi
7:30 AM54 °FFog.3 mph94%30.09 "Hg5 mi
7:00 AM52 °FFog.2 mph94%30.09 "Hg4 mi
6:30 AM50 °FFog.5 mph94%30.09 "Hg4 mi
6:00 AM50 °FFog.2 mph94%30.09 "Hg5 mi
5:30 AM52 °FClear.2 mph94%30.09 "Hg10 mi
5:00 AM52 °FClear.5 mph94%30.09 "Hg10 mi
4:30 AM52 °FClear.2 mph94%30.09 "Hg10 mi
4:00 AM52 °FClear.6 mph94%30.09 "Hg10 mi
Weather by CustomWeather, © 2014

See weather overviewHow to use our weather pages